Time,TemperatureF,DewpointF,PressureIn,WindDirection,WindDirectionDegrees,WindSpeedMPH,WindSpeedGustMPH,Humidity,HourlyPrecipIn,Conditions,Clouds,dailyrainin,SoftwareType,DateUTC
2013-06-16 00:02:00,55.0,-99.9,-100.00,SSW,200,5.0,7.0,-999,-99.99,,,-99.99,,2013-06-16 04:02:00,
2013-06-16 00:12:00,55.0,-99.9,-100.00,SSW,200,5.0,7.0,-999,-99.99,,,-99.99,,2013-06-16 04:12:00,
2013-06-16 00:23:00,55.0,-99.9,-100.00,SE,144,0.0,14.0,-999,-99.99,,,-99.99,,2013-06-16 04:23:00,
2013-06-16 00:34:00,55.0,-99.9,-100.00,SE,144,0.0,14.0,-999,-99.99,,,-99.99,,2013-06-16 04:34:00,
2013-06-16 00:43:00,55.0,-99.9,-100.00,SE,144,0.0,14.0,-999,-99.99,,,-99.99,,2013-06-16 04:43:00,
2013-06-16 00:53:00,55.0,-99.9,-100.00,SE,144,0.0,14.0,-999,-99.99,,,-99.99,,2013-06-16 04:53:00,
2013-06-16 01:02:00,55.0,-99.9,-100.00,SSE,165,4.0,10.0,-999,-99.99,,,-99.99,,2013-06-16 05:02:00,
2013-06-16 01:12:00,55.0,-99.9,-100.00,SSE,165,4.0,10.0,-999,-99.99,,,-99.99,,2013-06-16 05:12:00,
2013-06-16 01:22:00,55.0,-99.9,-100.00,SSE,165,4.0,10.0,-999,-99.99,,,-99.99,,2013-06-16 05:22:00,
2013-06-16 01:34:00,56.0,-99.9,-100.00,SSW,206,13.0,16.0,-999,-99.99,,,-99.99,,2013-06-16 05:34:00,
2013-06-16 01:40:00,55.0,-99.9,-100.00,NW,321,0.0,3.0,-999,-99.99,,,-99.99,,2013-06-16 05:40:00,
2013-06-16 01:43:00,56.0,-99.9,-100.00,SSW,206,13.0,16.0,-999,-99.99,,,-99.99,,2013-06-16 05:43:00,
2013-06-16 01:53:00,56.0,-99.9,-100.00,SSW,206,13.0,16.0,-999,-99.99,,,-99.99,,2013-06-16 05:53:00,
2013-06-16 02:02:00,55.0,-99.9,-100.00,NW,321,0.0,3.0,-999,-99.99,,,-99.99,,2013-06-16 06:02:00,
2013-06-16 02:12:00,55.0,-99.9,-100.00,NW,321,0.0,3.0,-999,-99.99,,,-99.99,,2013-06-16 06:12:00,
2013-06-16 02:23:00,55.0,-99.9,-100.00,NW,321,0.0,3.0,-999,-99.99,,,-99.99,,2013-06-16 06:23:00,
2013-06-16 02:33:00,55.0,-99.9,-100.00,NW,321,0.0,3.0,-999,-99.99,,,-99.99,,2013-06-16 06:33:00,
2013-06-16 02:40:00,57.0,-99.9,-100.00,NW,304,10.0,12.0,-999,-99.99,,,-99.99,,2013-06-16 06:40:00,
2013-06-16 03:02:00,57.0,-99.9,-100.00,NW,304,10.0,12.0,-999,-99.99,,,-99.99,,2013-06-16 07:02:00,
2013-06-16 03:12:00,57.0,-99.9,-100.00,NW,304,10.0,12.0,-999,-99.99,,,-99.99,,2013-06-16 07:12:00,
2013-06-16 03:23:00,57.0,-99.9,-100.00,NW,304,10.0,12.0,-999,-99.99,,,-99.99,,2013-06-16 07:23:00,
2013-06-16 03:33:00,57.0,-99.9,-100.00,NW,304,10.0,12.0,-999,-99.99,,,-99.99,,2013-06-16 07:33:00,
2013-06-16 03:40:00,61.0,-99.9,-100.00,NW,313,7.0,11.0,-999,-99.99,,,-99.99,,2013-06-16 07:40:00,
2013-06-16 04:02:00,61.0,-99.9,-100.00,NW,313,7.0,11.0,-999,-99.99,,,-99.99,,2013-06-16 08:02:00,
2013-06-16 04:12:00,61.0,-99.9,-100.00,NW,313,7.0,11.0,-999,-99.99,,,-99.99,,2013-06-16 08:12:00,
2013-06-16 04:22:00,61.0,-99.9,-100.00,NW,313,7.0,11.0,-999,-99.99,,,-99.99,,2013-06-16 08:22:00,
2013-06-16 04:34:00,61.0,-99.9,-100.00,NW,313,7.0,11.0,-999,-99.99,,,-99.99,,2013-06-16 08:34:00,
2013-06-16 04:40:00,57.0,-99.9,-100.00,NW,310,3.0,5.0,-999,-99.99,,,-99.99,,2013-06-16 08:40:00,
2013-06-16 05:02:00,57.0,-99.9,-100.00,NW,310,3.0,5.0,-999,-99.99,,,-99.99,,2013-06-16 09:02:00,
2013-06-16 05:11:00,57.0,-99.9,-100.00,NW,310,3.0,5.0,-999,-99.99,,,-99.99,,2013-06-16 09:11:00,
2013-06-16 05:22:00,57.0,-99.9,-100.00,NW,310,3.0,5.0,-999,-99.99,,,-99.99,,2013-06-16 09:22:00,
2013-06-16 05:33:00,57.0,-99.9,-100.00,NW,310,3.0,5.0,-999,-99.99,,,-99.99,,2013-06-16 09:33:00,
2013-06-16 05:40:00,58.0,-99.9,-100.00,West,281,7.0,9.0,-999,-99.99,,,-99.99,,2013-06-16 09:40:00,
2013-06-16 06:02:00,58.0,-99.9,-100.00,West,281,7.0,9.0,-999,-99.99,,,-99.99,,2013-06-16 10:02:00,
2013-06-16 06:12:00,58.0,-99.9,-100.00,West,281,7.0,9.0,-999,-99.99,,,-99.99,,2013-06-16 10:12:00,
2013-06-16 06:22:00,58.0,-99.9,-100.00,West,281,7.0,9.0,-999,-99.99,,,-99.99,,2013-06-16 10:22:00,
2013-06-16 06:33:00,58.0,-99.9,-100.00,West,281,7.0,9.0,-999,-99.99,,,-99.99,,2013-06-16 10:33:00,
2013-06-16 06:40:00,58.0,-99.9,-100.00,WNW,296,4.0,6.0,-999,-99.99,,,-99.99,,2013-06-16 10:40:00,
2013-06-16 07:02:00,58.0,-99.9,-100.00,WNW,296,4.0,6.0,-999,-99.99,,,-99.99,,2013-06-16 11:02:00,
2013-06-16 07:12:00,58.0,-99.9,-100.00,WNW,296,4.0,6.0,-999,-99.99,,,-99.99,,2013-06-16 11:12:00,
2013-06-16 07:22:00,58.0,-99.9,-100.00,WNW,296,4.0,6.0,-999,-99.99,,,-99.99,,2013-06-16 11:22:00,
2013-06-16 07:34:00,58.0,-99.9,-100.00,WNW,296,4.0,6.0,-999,-99.99,,,-99.99,,2013-06-16 11:34:00,
2013-06-16 07:40:00,56.0,-99.9,-100.00,WNW,300,6.0,7.0,-999,-99.99,,,-99.99,,2013-06-16 11:40:00,
2013-06-16 08:02:00,56.0,-99.9,-100.00,WNW,300,6.0,7.0,-999,-99.99,,,-99.99,,2013-06-16 12:02:00,
2013-06-16 08:12:00,56.0,-99.9,-100.00,WNW,300,6.0,7.0,-999,-99.99,,,-99.99,,2013-06-16 12:12:00,
2013-06-16 08:22:00,56.0,-99.9,-100.00,WNW,300,6.0,7.0,-999,-99.99,,,-99.99,,2013-06-16 12:22:00,
2013-06-16 08:33:00,56.0,-99.9,-100.00,WNW,300,6.0,7.0,-999,-99.99,,,-99.99,,2013-06-16 12:33:00,
2013-06-16 08:40:00,58.0,-99.9,-100.00,WSW,250,5.0,7.0,-999,-99.99,,,-99.99,,2013-06-16 12:40:00,
2013-06-16 09:02:00,58.0,-99.9,-100.00,WSW,250,5.0,7.0,-999,-99.99,,,-99.99,,2013-06-16 13:02:00,
2013-06-16 09:12:00,58.0,-99.9,-100.00,WSW,250,5.0,7.0,-999,-99.99,,,-99.99,,2013-06-16 13:12:00,
2013-06-16 09:22:00,58.0,-99.9,-100.00,WSW,250,5.0,7.0,-999,-99.99,,,-99.99,,2013-06-16 13:22:00,
2013-06-16 09:34:00,58.0,-99.9,-100.00,WSW,250,5.0,7.0,-999,-99.99,,,-99.99,,2013-06-16 13:34:00,
2013-06-16 10:02:00,56.0,-99.9,-100.00,SSW,194,9.0,10.0,-999,-99.99,,,-99.99,,2013-06-16 14:02:00,
2013-06-16 11:02:00,60.0,-99.9,-100.00,WSW,243,15.0,17.0,-999,-99.99,,,-99.99,,2013-06-16 15:02:00,
2013-06-16 11:40:00,63.0,-99.9,-100.00,SW,234,13.0,17.0,-999,-99.99,,,-99.99,,2013-06-16 15:40:00,
2013-06-16 12:02:00,63.0,-99.9,-100.00,SW,234,13.0,17.0,-999,-99.99,,,-99.99,,2013-06-16 16:02:00,
2013-06-16 12:12:00,63.0,-99.9,-100.00,SW,234,13.0,17.0,-999,-99.99,,,-99.99,,2013-06-16 16:12:00,
2013-06-16 12:23:00,63.0,-99.9,-100.00,SW,234,13.0,17.0,-999,-99.99,,,-99.99,,2013-06-16 16:23:00,
2013-06-16 12:34:00,63.0,-99.9,-100.00,SW,234,13.0,17.0,-999,-99.99,,,-99.99,,2013-06-16 16:34:00,
2013-06-16 13:02:00,65.0,-99.9,-100.00,SW,223,16.0,18.0,-999,-99.99,,,-99.99,,2013-06-16 17:02:00,
2013-06-16 13:12:00,65.0,-99.9,-100.00,SW,223,16.0,18.0,-999,-99.99,,,-99.99,,2013-06-16 17:12:00,
2013-06-16 13:22:00,65.0,-99.9,-100.00,SW,223,16.0,18.0,-999,-99.99,,,-99.99,,2013-06-16 17:22:00,
2013-06-16 13:40:00,67.0,-99.9,-100.00,SW,233,17.0,20.0,-999,-99.99,,,-99.99,,2013-06-16 17:40:00,
2013-06-16 14:02:00,67.0,-99.9,-100.00,SW,233,17.0,20.0,-999,-99.99,,,-99.99,,2013-06-16 18:02:00,
2013-06-16 14:12:00,67.0,-99.9,-100.00,SW,233,17.0,20.0,-999,-99.99,,,-99.99,,2013-06-16 18:12:00,
2013-06-16 14:23:00,67.0,-99.9,-100.00,SW,233,17.0,20.0,-999,-99.99,,,-99.99,,2013-06-16 18:23:00,
2013-06-16 14:34:00,67.0,-99.9,-100.00,SW,233,17.0,20.0,-999,-99.99,,,-99.99,,2013-06-16 18:34:00,
2013-06-16 14:40:00,68.0,-99.9,-100.00,SW,233,16.0,18.0,-999,-99.99,,,-99.99,,2013-06-16 18:40:00,
2013-06-16 15:02:00,68.0,-99.9,-100.00,SW,233,16.0,18.0,-999,-99.99,,,-99.99,,2013-06-16 19:02:00,
2013-06-16 15:12:00,68.0,-99.9,-100.00,SW,233,16.0,18.0,-999,-99.99,,,-99.99,,2013-06-16 19:12:00,
2013-06-16 15:22:00,68.0,-99.9,-100.00,SW,233,16.0,18.0,-999,-99.99,,,-99.99,,2013-06-16 19:22:00,
2013-06-16 15:34:00,68.0,-99.9,-100.00,SW,233,16.0,18.0,-999,-99.99,,,-99.99,,2013-06-16 19:34:00,
2013-06-16 16:02:00,63.0,-99.9,-100.00,SSW,201,9.0,13.0,-999,-99.99,,,-99.99,,2013-06-16 20:02:00,
2013-06-16 17:02:00,63.0,-99.9,-100.00,SSE,150,0.0,7.0,-999,-99.99,,,-99.99,,2013-06-16 21:02:00,
2013-06-16 20:40:00,64.0,-99.9,-100.00,East,91,0.0,5.0,-999,-99.99,,,-99.99,,2013-06-17 00:40:00,
2013-06-16 21:32:00,64.0,-99.9,-100.00,East,91,0.0,5.0,-999,-99.99,,,-99.99,,2013-06-17 01:32:00,
2013-06-16 22:03:00,65.0,-99.9,-100.00,NNE,33,10.0,16.0,-999,-99.99,,,-99.99,,2013-06-17 02:03:00,
2013-06-16 22:12:00,65.0,-99.9,-100.00,NNE,33,10.0,16.0,-999,-99.99,,,-99.99,,2013-06-17 02:12:00,
2013-06-16 22:22:00,67.0,-99.9,-100.00,NNE,14,7.0,15.0,-999,-99.99,,,-99.99,,2013-06-17 02:22:00,
2013-06-16 22:34:00,67.0,-99.9,-100.00,NNE,14,7.0,15.0,-999,-99.99,,,-99.99,,2013-06-17 02:34:00,
2013-06-16 22:43:00,62.0,-99.9,-100.00,NNE,32,5.0,17.0,-999,-99.99,,,-99.99,,2013-06-17 02:43:00,
2013-06-16 22:53:00,62.0,-99.9,-100.00,NNE,32,5.0,17.0,-999,-99.99,,,-99.99,,2013-06-17 02:53:00,
2013-06-16 23:02:00,61.0,-99.9,-100.00,NNW,346,3.0,7.0,-999,-99.99,,,-99.99,,2013-06-17 03:02:00,
2013-06-16 23:12:00,61.0,-99.9,-100.00,NNW,346,3.0,7.0,-999,-99.99,,,-99.99,,2013-06-17 03:12:00,
2013-06-16 23:22:00,61.0,-99.9,-100.00,NNW,346,3.0,7.0,-999,-99.99,,,-99.99,,2013-06-17 03:22:00,
2013-06-16 23:33:00,62.0,-99.9,-100.00,NNE,32,5.0,17.0,-999,-99.99,,,-99.99,,2013-06-17 03:33:00,
2013-06-16 23:40:00,59.0,-99.9,-100.00,NW,312,3.0,4.0,-999,-99.99,,,-99.99,,2013-06-17 03:40:00,
2013-06-16 23:44:00,62.0,-99.9,-100.00,NNE,32,5.0,17.0,-999,-99.99,,,-99.99,,2013-06-17 03:44:00,
2013-06-16 23:54:00,62.0,-99.9,-100.00,NNE,32,5.0,17.0,-999,-99.99,,,-99.99,,2013-06-17 03:54:00,